• Join FlightAware (Why Join?)
  • Login
  • US Flag 
01:06AM EDT


 

Airport Tracker/Info


-or-


 

Live Flight TrackerFlight Track Log ✈ RPA3396 ✈ 23-Feb-2014 ✈ KDCA - KALB

Flight Track Log - Related Links

Times and Time Zones

All times are in EST time to prevent confusion due to time zone crossing. See the RPA3396 flight status page for this flight to view local times or setup timezone preferences in your user account.

Time Position Orientation Groundspeed Altitude Reporting Facility
EST Latitude Longitude Course Direction KTS MPH feet Rate Location/Type
03:50PM 38.8875 -77.0717 31° Northeast 180 207 1,900  Level Washington Center
03:51PM 38.9350 -77.1233 320° Northwest 200 230 4,000 3,000 Climbing Washington Center
03:52PM 38.9925 -77.1728 326° Northwest 231 266 7,900 3,240 Climbing Washington Center
03:53PM 39.1973 -76.7686 31° Northeast  Level Estimated
03:53PM 39.0375 -77.0856 56° Northeast 214 246 10,700  Level Washington Center
03:54PM 39.2836 -76.7009 31° Northeast  Level Estimated
03:54PM 39.0536 -76.9603 81° East 259 298 13,000  Level Washington Center
03:55PM 39.3698 -76.6330 31° Northeast  Level Estimated
03:55PM 39.0672 -76.8561 80° East 315 362 15,300  Level Washington Center
03:56PM 39.4560 -76.5650 31° Northeast  Level Estimated
03:56PM 39.0897 -76.6908 80° East 364 419 18,200  Level Washington Center
03:57PM 39.1097 -76.5439 80° East 386 444 20,200 1,920 Climbing Washington Center
03:58PM 39.1294 -76.3864 81° East 420 483 22,100 1,380 Climbing Washington Center
03:59PM 39.1492 -76.2233 81° East 446 513 23,000 420 Climbing Washington Center
04:00PM 39.1708 -76.0736 79° East 460 529 23,000 300 Level Washington Center
04:01PM 39.1942 -75.9075 80° East 466 536 23,700 1,080 Climbing Washington Center
04:02PM 39.2717 -75.7819 51° Northeast 439 505 25,200 1,500 Climbing Washington Center
04:03PM 39.3636 -75.6614 45° Northeast 446 513 26,800 900 Climbing Washington Center
04:04PM 39.4594 -75.5350 45° Northeast 465 535 27,000 60 Climbing Washington Center
04:06PM 39.6694 -75.2642 45° Northeast 515 593 27,000  Level New York Center
04:07PM 39.7664 -75.1217 48° Northeast 520 598 27,000  Level New York Center
04:08PM 39.8633 -74.9817 48° Northeast 520 598 27,000  Level New York Center
04:09PM 39.9578 -74.8464 48° Northeast 520 598 27,000  Level New York Center
04:10PM 40.0564 -74.7058 47° Northeast 520 598 27,000  Level New York Center
04:11PM 40.1547 -74.5675 47° Northeast 520 598 27,000 -300 Level New York Center
04:12PM 40.2350 -74.4631 45° Northeast 520 598 26,500 -660 Descending New York Center
04:14PM 40.4719 -74.2114 39° Northeast 491 565 25,000 -720 Descending Boston Center
04:15PM 40.5756 -74.0983 40° Northeast 485 558 24,300 -540 Descending Boston Center
04:17PM 40.6769 -73.9903 39° Northeast 479 551 24,000 -180 Descending Boston Center
04:18PM 40.7775 -73.8789 40° Northeast 473 544 24,000  Level Boston Center
04:19PM 40.8764 -73.7608 42° Northeast 477 549 24,000 -240 Level Boston Center
04:20PM 40.9742 -73.6408 43° Northeast 478 550 23,600 -480 Descending Boston Center
04:21PM 41.0781 -73.5475 34° Northeast 459 528 23,100 -540 Descending Boston Center
04:22PM 41.1939 -73.5006 17° North 438 504 22,600 -780 Descending Boston Center
04:23PM 41.3361 -73.4422 17° North 441 507 21,600 -1,020 Descending Boston Center
04:24PM 41.4519 -73.3936 17° North 436 502 20,600 -1,020 Descending Boston Center
04:25PM 41.5567 -73.3517 17° North 428 493 19,600 -1,020 Descending Boston Center
04:26PM 41.6775 -73.3411 North 414 476 18,600 -1,200 Descending Boston Center
04:27PM 41.7819 -73.3872 342° North 372 428 17,200 -1,680 Descending Boston Center
04:28PM 41.8672 -73.4253 342° North 372 428 15,400 -1,980 Descending Boston Center
04:28PM 41.8806 -73.4286 349° North 372 428 15,200 -1,800 Descending Boston Center
04:29PM 41.9611 -73.4647 342° North 351 404 13,600 -1,800 Descending Boston Center
04:29PM 41.9744 -73.4683 349° North 360 414 13,400 -1,920 Descending Boston Center
04:30PM 42.0525 -73.5033 342° North 343 395 11,700 -1,980 Descending Boston Center
04:30PM 42.0697 -73.5100 344° North 346 398 11,400 -660 Descending Boston Center
04:31PM 42.1544 -73.5456 343° North 350 403 11,000 -420 Descending Boston Center
04:31PM 42.1628 -73.5483 346° North 349 402 11,000 -780 Level Boston Center
04:32PM 42.2544 -73.5875 342° North 345 397 10,200 -780 Descending Boston Center
04:32PM 42.2597 -73.5919 328° Northwest 346 398 10,200 -720 Level Boston Center
04:33PM 42.3403 -73.6256 343° North 307 353 9,500 -720 Descending Boston Center
04:33PM 42.3369 -73.6264 190° South 280 322 9,500 -1,500 Level Boston Center
04:34PM 42.4114 -73.6542 345° North 269 310 8,000 -1,320 Descending Boston Center
04:35PM 42.4878 -73.6708 351° North 273 314 6,900 -1,080 Descending Boston Center
04:36PM 42.5622 -73.6872 351° North 271 312 5,900 -1,080 Descending Boston Center
04:36PM 42.5686 -73.6878 356° North 271 312 5,800 -1,680 Descending Boston Center
04:37PM 42.6419 -73.7078 349° North 269 310 4,200 -1,380 Descending Boston Center
04:38PM 42.7122 -73.7194 353° North 259 298 3,000 -900 Descending Boston Center
04:39PM 42.7733 -73.7289 354° North 214 246 2,500 -600 Descending Boston Center
04:39PM 42.7786 -73.7300 351° North 222 255 2,400 -900 Descending Boston Center
04:40PM 42.8069 -73.7694 314° West 173 199 1,600 -840 Descending Boston Center
04:40PM 42.8056 -73.7753 252° West 183 211 1,600 -780 Level Boston Center
04:41PM 42.7850 -73.8058 227° Southwest 140 161 900 -720 Descending Boston Center
04:42PM 42.7481 -73.8047 179° South 134 154 200 -600 Descending Boston Center